Location: Glendale
(37.4556°N, 88.6714°W)
Time: 03:50:09
(UTC+00:00)

STARLINK-41 - Visible Passes

Search period start: 02 April 2020 00:00
Search period end: 12 April 2020 00:00
Orbit: 381 x 390 km, 53.0° (Epoch: 01 April)

Date Brightness Start Highest point End Pass type
(mag) Time Alt. Az. Time Alt. Az. Time Alt. Az.
08 Apr 6.0 10:33:51 10° N 10:35:14 12° NNE 10:36:38 10° NE visible
10 Apr 5.8 10:12:26 10° NNW 10:14:42 18° NNE 10:16:57 10° ENE visible
11 Apr 6.2 09:15:13 10° N 09:16:01 11° NNE 09:16:49 10° NE visible
11 Apr 3.4 10:49:20 10° NW 10:52:29 64° NE 10:55:37 10° ESE visible
